HST 1 20580U 90037B 25057.73842753 .00012997 00000-0 52330-3 0 9996 2 20580 28.4685 72.6255 0001884 298.4028 61.6376 15.23311316715818 ISS (ZARYA) 1 25544U 98067A 25057.69551956 .00051272 00000-0 91556-3 0 9991 2 25544 51.6387 134.2889 0005831 315.8203 179.6729 15.49515680498024 CXO 1 25867U 99040B 25058.37201156 .00001150 00000-0 00000+0 0 9991 2 25867 46.9769 135.4700 8580484 307.2371 0.6391 0.37800227 26681